EW7070 Weather Reports


time (UTC)temp
F
wind
direction
speed
knots
gust
knots
rain 1hr
in
rain 24hr
in
rain mn
in
humidity
%
barometer
mb
20260506185640 91 328 1.7 7.0 0.00 0.00 0.00 61 1012.0
20260506185410 90 28 0.9 5.2 0.00 0.00 0.00 63 1011.8
20260506184906 90 0 1.7 5.2 0.00 0.00 0.00 62 1011.8
20260506184111 90 15 1.7 5.2 0.00 0.00 0.00 62 1011.8
20260506183559 91 8 1.7 5.2 0.00 0.00 0.00 61 1011.8
20260506183033 90 358 1.7 7.8 0.00 0.00 0.00 62 1012.0
20260506182503 91 37 1.7 5.2 0.00 0.00 0.00 62 1012.0
20260506182226 91 24 1.7 7.0 0.00 0.00 0.00 61 1012.2
20260506181427 91 344 2.6 7.0 0.00 0.00 0.00 61 1012.1
20260506181155 91 359 3.5 8.7 0.00 0.00 0.00 61 1012.2
20260506180421 91 11 3.5 8.7 0.00 0.00 0.00 59 1012.3
20260506175853 92 15 2.6 7.0 0.00 0.00 0.00 60 1012.3
20260506175344 92 338 2.6 7.0 0.00 0.00 0.00 60 1012.4
20260506174843 92 359 2.6 7.0 0.00 0.00 0.00 60 1012.5
20260506174615 92 66 3.5 7.0 0.00 0.00 0.00 61 1012.5
20260506173814 92 349 3.5 8.7 0.00 0.00 0.00 61 1012.7
20260506173248 92 347 3.5 9.6 0.00 0.00 0.00 61 1012.8
20260506172732 92 335 3.5 9.6 0.00 0.00 0.00 61 1012.8
20260506172231 91 335 2.6 8.7 0.00 0.00 0.00 62 1012.9
20260506171730 91 16 2.6 9.6 0.00 0.00 0.00 62 1013.0
20260506171230 91 335 4.3 10.4 0.00 0.00 0.00 62 1012.9
20260506170704 91 303 5.2 9.6 0.00 0.00 0.00 61 1013.0
20260506170408 91 325 5.2 11.3 0.00 0.00 0.00 61 1013.1
20260506165627 90 323 4.3 11.3 0.00 0.00 0.00 61 1013.1
20260506165353 90 327 4.3 10.4 0.00 0.00 0.00 63 1013.3
20260506164618 90 335 4.3 10.4 0.00 0.00 0.00 62 1013.2
20260506164048 90 8 3.5 10.4 0.00 0.00 0.00 61 1013.4
20260506163523 90 322 3.5 10.4 0.00 0.00 0.00 63 1013.4
20260506163227 89 323 3.5 10.4 0.00 0.00 0.00 62 1013.6
20260506162427 89 342 4.3 10.4 0.00 0.00 0.00 64 1013.6
20260506161859 89 318 3.5 10.4 0.00 0.00 0.00 62 1013.8
20260506161618 90 331 1.7 6.1 0.00 0.00 0.00 64 1013.8
20260506160848 89 346 2.6 7.8 0.00 0.00 0.00 64 1014.0
20260506160337 89 30 3.5 7.8 0.00 0.00 0.00 64 1014.1
20260506155820 89 318 3.5 13.0 0.00 0.00 0.00 65 1014.2
20260506155320 89 2 3.5 13.0 0.00 0.00 0.00 65 1014.3
20260506155052 88 59 2.6 10.4 0.00 0.00 0.00 66 1014.4
20260506154324 88 325 4.3 9.6 0.00 0.00 0.00 66 1014.5
20260506153803 87 6 5.2 10.4 0.00 0.00 0.00 66 1014.5
20260506153245 87 341 4.3 9.6 0.00 0.00 0.00 66 1014.6
20260506152742 87 345 3.5 9.6 0.00 0.00 0.00 67 1014.9
20260506152217 87 359 3.5 8.7 0.00 0.00 0.00 67 1014.9
20260506151649 87 0 3.5 10.4 0.00 0.00 0.00 67 1015.0
20260506151125 87 355 3.5 10.4 0.00 0.00 0.00 68 1015.2
20260506150625 86 5 5.2 9.6 0.00 0.00 0.00 70 1015.2
20260506150123 86 22 5.2 9.6 0.00 0.00 0.00 67 1015.3
20260506145626 86 19 4.3 12.2 0.00 0.00 0.00 68 1015.3
20260506145057 86 339 5.2 13.0 0.00 0.00 0.00 67 1015.4
20260506144827 86 9 4.3 13.0 0.00 0.00 0.00 67 1015.4
20260506144543 86 357 4.3 8.7 0.00 0.00 0.00 68 1015.4
20260506143539 85 83 4.3 9.6 0.00 0.00 0.00 68 1015.5
20260506143011 85 8 4.3 10.4 0.00 0.00 0.00 68 1015.5
20260506142506 85 357 4.3 10.4 0.00 0.00 0.00 69 1015.5
20260506142001 85 323 4.3 13.0 0.00 0.00 0.00 69 1015.6
20260506141434 84 336 5.2 13.0 0.00 0.00 0.00 68 1015.7
20260506140930 84 329 3.5 10.4 0.00 0.00 0.00 70 1015.8
20260506140426 84 6 2.6 10.4 0.00 0.00 0.00 71 1015.8
20260506135901 83 341 2.6 10.4 0.00 0.00 0.00 71 1015.9
20260506135349 83 323 2.6 7.0 0.00 0.00 0.00 72 1016.0
20260506134849 82 332 1.7 6.1 0.00 0.00 0.00 72 1016.1
20260506134323 81 13 0.9 6.1 0.00 0.00 0.00 76 1016.3
20260506133812 81 325 0.9 6.1 0.00 0.00 0.00 74 1016.3
20260506133311 81 296 1.7 6.1 0.00 0.00 0.00 79 1016.3
20260506133038 81 112 0.9 4.3 0.00 0.00 0.00 77 1016.3
20260506132534 80 1 0.9 3.5 0.00 0.00 0.00 75 1016.2
20260506131757 80 123 1.7 6.1 0.00 0.00 0.00 75 1016.2
20260506131251 80 141 1.7 6.1 0.00 0.00 0.00 76 1016.2
20260506130750 80 90 0.9 3.5 0.00 0.00 0.00 80 1016.3
20260506130248 79 107 0.9 2.6 0.00 0.00 0.00 80 1016.4
20260506125717 79 124 0.9 2.6 0.00 0.00 0.00 84 1016.5
20260506125150 78 92 0.0 1.7 0.00 0.00 0.00 84 1016.6
20260506124624 77 227 0.0 1.7 0.00 0.00 0.00 80 1016.7
20260506124119 77 298 0.9 3.5 0.00 0.00 0.00 84 1016.9
20260506123553 76 318 0.9 3.5 0.00 0.00 0.00 82 1016.9
20260506123026 76 289 0.0 2.6 0.00 0.00 0.00 84 1016.9
20260506122459 75 249 0.9 5.2 0.00 0.00 0.00 86 1016.8
20260506121956 75 306 0.9 5.2 0.00 0.00 0.00 86 1016.8
20260506121452 74 310 0.0 3.5 0.00 0.00 0.00 88 1016.6
20260506120923 74 217 0.0 0.0 0.00 0.00 0.00 92 1016.8
20260506120356 73 166 0.0 0.0 0.00 0.00 0.00 92 1016.8
20260506120101 73 106 0.0 0.9 0.00 0.00 0.00 92 1016.8
20260506115327 72 124 0.0 0.9 0.00 0.00 0.00 93 1016.6
20260506114758 72 177 0.0 0.9 0.00 0.00 0.00 94 1016.7
20260506114230 71 143 0.0 0.9 0.00 0.00 0.00 94 1016.7
20260506113958 71 153 0.0 0.0 0.00 0.00 0.00 95 1016.7
20260506113218 71 153 0.9 2.6 0.00 0.00 0.00 94 1016.8
20260506112715 71 131 1.7 4.3 0.00 0.00 0.00 94 1016.8
20260506112159 70 164 1.7 4.3 0.00 0.00 0.00 95 1016.8
20260506111931 70 305 1.7 7.8 0.00 0.00 0.00 95 1016.8
20260506111145 69 320 2.6 7.8 0.00 0.00 0.00 97 1016.7
20260506110645 69 333 3.5 7.8 0.00 0.00 0.00 99 1016.7
20260506110417 68 314 4.3 8.7 0.00 0.00 0.00 99 1016.8
20260506105851 68 282 3.5 8.7 0.00 0.00 0.00 99 1016.6
20260506105055 67 306 1.7 7.0 0.00 0.00 0.00 99 1016.5
20260506104813 67 303 0.9 6.1 0.00 0.00 0.00 99 1016.3
20260506104042 66 177 0.9 3.5 0.00 0.00 0.00 99 1016.3
20260506103809 66 40 0.9 3.5 0.00 0.00 0.00 99 1016.3
20260506103036 65 4 0.0 1.7 0.00 0.00 0.00 99 1016.2
20260506102525 65 177 0.0 2.6 0.00 0.00 0.00 99 1016.1
20260506102001 65 74 0.0 1.7 0.00 0.00 0.00 99 1015.9
20260506101439 65 237 0.9 2.6 0.00 0.00 0.00 99 1015.8
20260506101209 65 329 0.9 1.7 0.00 0.00 0.00 99 1015.8
20260506100659 64 268 0.0 2.6 0.00 0.00 0.00 99 1015.7
20260506100420 64 266 0.0 2.6 0.00 0.00 0.00 99 1015.7
20260506095416 64 30 0.0 0.0 0.00 0.00 0.00 99 1015.7
20260506094904 64 30 0.0 1.7 0.00 0.00 0.00 99 1015.7
20260506094633 64 30 0.9 2.6 0.00 0.00 0.00 99 1015.8
20260506093900 64 30 0.0 2.6 0.00 0.00 0.00 99 1015.8
20260506093608 64 130 0.0 1.7 0.00 0.00 0.00 99 1015.9
20260506092836 64 130 0.0 1.7 0.00 0.00 0.00 99 1015.8
20260506092336 64 106 0.0 2.6 0.00 0.00 0.00 99 1015.7
20260506091832 64 106 0.9 2.6 0.00 0.00 0.00 99 1015.6
20260506091335 64 99 0.9 2.6 0.00 0.00 0.00 99 1015.7
20260506091329 63 275 0.0 1.7 0.00 0.00 0.00 99 1015.6
20260506090326 63 349 0.9 1.7 0.00 0.00 0.00 99 1015.6
20260506085819 63 268 0.9 2.6 0.00 0.00 0.00 99 1015.4
20260506085252 63 51 0.0 0.0 0.00 0.00 0.00 99 1015.5
20260506084738 63 51 0.0 0.0 0.00 0.00 0.00 98 1015.5
20260506084238 63 51 0.0 0.0 0.00 0.00 0.00 98 1015.5
20260506083724 63 51 0.0 0.0 0.00 0.00 0.00 98 1015.4
20260506083202 63 51 0.0 0.0 0.00 0.00 0.00 98 1015.6
20260506082935 63 51 0.0 0.0 0.00 0.00 0.00 98 1015.5
20260506082159 63 51 0.0 0.0 0.00 0.00 0.00 98 1015.4
20260506081657 63 51 0.0 0.0 0.00 0.00 0.00 99 1015.4
20260506081155 63 51 0.0 0.0 0.00 0.00 0.00 99 1015.4
20260506080652 63 51 0.0 0.0 0.00 0.00 0.00 99 1015.3
20260506080152 63 51 0.0 0.0 0.00 0.00 0.00 98 1015.4
20260506073103 62 32 0.0 1.7 0.00 0.00 0.00 98 1015.7
20260506072538 62 32 0.0 1.7 0.00 0.00 0.00 98 1015.8
20260506072031 62 32 0.0 0.0 0.00 0.01 0.00 98 1015.9
20260506071530 63 32 0.0 0.0 0.00 0.01 0.00 98 1016.0
20260506071031 63 32 0.0 0.0 0.00 0.01 0.00 98 1016.0
20260506070515 63 32 0.0 0.0 0.00 0.01 0.00 98 1016.0
20260506070243 63 32 0.0 0.0 0.00 0.01 0.00 98 1015.9
20260506062400 63 32 0.0 0.0 0.00 0.01 0.00 98 1016.2
20260506061901 63 32 0.0 0.0 0.00 0.01 0.00 98 1016.3
20260506061359 63 32 0.0 0.0 0.00 0.01 0.00 98 1016.2
20260506060857 63 32 0.0 0.0 0.00 0.01 0.00 98 1016.4
20260506060331 63 32 0.0 0.0 0.00 0.01 0.00 98 1016.4
20260506051052 63 32 0.0 0.0 0.00 0.01 0.00 97 1016.4
20260506050524 63 32 0.0 0.0 0.00 0.01 0.00 97 1016.3
20260506045011 63 32 0.0 0.0 0.00 0.01 0.00 97 1016.2
20260506044509 63 93 0.0 0.0 0.00 0.01 0.00 97 1016.3
20260506043942 64 93 0.0 0.0 0.00 0.01 0.00 97 1016.3
20260506043439 64 311 0.0 0.0 0.00 0.01 0.00 97 1016.2
20260506042920 64 311 0.0 0.0 0.00 0.01 0.00 97 1016.2
20260506042415 64 311 0.0 0.0 0.00 0.01 0.00 97 1016.1
20260506041912 64 311 0.0 0.0 0.00 0.01 0.00 97 1015.9
20260506041354 64 311 0.0 0.0 0.00 0.01 0.00 98 1015.9
20260506040848 64 311 0.0 0.9 0.00 0.01 0.00 97 1016.0
20260506040348 64 311 0.0 0.9 0.00 0.01 0.00 97 1016.0
20260506040054 65 311 0.0 0.0 0.00 0.01 0.00 97 1016.0
20260506035308 65 311 0.0 0.9 0.00 0.01 0.00 97 1015.8
20260506034806 65 311 0.0 0.9 0.00 0.01 0.00 97 1015.8
20260506034019 65 311 0.0 1.7 0.00 0.01 0.00 97 1015.8
20260506033220 65 24 0.0 0.9 0.00 0.01 0.00 97 1015.8
20260506032720 65 105 0.0 0.9 0.00 0.01 0.00 97 1015.8
20260506032219 65 105 0.0 0.0 0.00 0.01 0.00 97 1015.7
20260506031721 65 105 0.0 0.0 0.00 0.01 0.00 97 1015.7
20260506031156 65 105 0.0 0.0 0.00 0.01 0.00 97 1015.8
20260506030700 65 105 0.0 0.0 0.00 0.01 0.00 97 1015.8
20260506030202 65 105 0.0 0.0 0.00 0.01 0.00 97 1015.7
20260506025923 65 105 0.0 0.9 0.00 0.01 0.01 97 1015.6
20260506025133 65 105 0.0 0.9 0.00 0.01 0.01 97 1015.7
20260506024623 65 328 0.0 1.7 0.00 0.01 0.01 97 1015.5
20260506024110 65 328 0.0 1.7 0.00 0.01 0.01 97 1015.6
20260506023541 65 328 0.0 1.7 0.00 0.01 0.01 97 1015.7
20260506023042 65 328 0.0 0.0 0.00 0.01 0.01 96 1015.7
20260506022810 65 328 0.0 0.9 0.00 0.01 0.01 96 1015.6
20260506022039 65 328 0.0 0.9 0.00 0.01 0.01 96 1015.5
20260506021537 66 303 0.0 0.0 0.00 0.01 0.01 96 1015.5
20260506021029 66 303 0.0 0.0 0.00 0.01 0.01 96 1015.4
20260506020801 66 303 0.0 0.0 0.00 0.01 0.01 96 1015.4
20260506020029 66 303 0.0 0.0 0.00 0.01 0.01 96 1015.5
20260506015521 66 303 0.0 0.0 0.00 0.01 0.01 96 1015.7
20260506015021 66 303 0.0 0.0 0.00 0.01 0.01 96 1015.8
20260506014518 66 303 0.0 0.0 0.00 0.01 0.01 96 1015.9
20260506014013 66 303 0.0 0.0 0.00 0.01 0.01 96 1015.9
20260506013503 67 303 0.0 0.0 0.00 0.01 0.01 96 1016.0
20260506013231 67 303 0.0 0.0 0.00 0.01 0.01 96 1016.0
20260506012727 67 303 0.0 0.0 0.00 0.01 0.01 95 1015.9
20260506011959 67 303 0.0 0.0 0.00 0.01 0.01 95 1016.0
20260506011432 67 303 0.0 0.0 0.00 0.01 0.01 95 1015.9
20260506010910 67 303 0.0 0.0 0.00 0.01 0.01 96 1015.9
20260506010401 67 303 0.0 0.0 0.00 0.01 0.01 95 1015.9
20260506005846 67 303 0.0 0.0 0.00 0.01 0.01 95 1015.9
20260506005337 67 303 0.0 0.0 0.00 0.01 0.01 95 1015.8
20260506004836 68 303 0.0 0.0 0.00 0.01 0.01 95 1015.8
20260506004308 68 303 0.0 0.0 0.00 0.01 0.01 94 1015.6
20260506003745 68 303 0.0 0.0 0.00 0.01 0.01 94 1015.6
20260506003241 68 303 0.0 0.0 0.00 0.01 0.01 94 1015.6
20260506002739 68 303 0.0 0.0 0.00 0.01 0.01 94 1015.5
20260506002234 68 303 0.0 0.0 0.00 0.01 0.01 94 1015.6
20260506001733 68 303 0.0 0.0 0.00 0.01 0.01 94 1015.5
20260506001441 69 303 0.0 0.0 0.00 0.01 0.01 94 1015.5
20260506000712 69 303 0.0 0.0 0.00 0.01 0.01 93 1015.6
20260506000211 69 303 0.0 0.0 0.00 0.01 0.01 93 1015.5
20260505235942 69 303 0.0 0.0 0.00 0.01 0.01 93 1015.5
20260505235205 69 303 0.0 0.0 0.00 0.01 0.01 93 1015.5
20260505234701 69 303 0.0 0.0 0.00 0.01 0.01 94 1015.4
20260505234131 69 303 0.0 0.0 0.00 0.01 0.01 93 1015.5
20260505233607 70 303 0.0 0.0 0.00 0.01 0.01 92 1015.4
20260505233102 70 303 0.0 0.0 0.00 0.01 0.01 92 1015.4
20260505232830 70 303 0.0 0.0 0.00 0.01 0.01 93 1015.3
20260505232049 70 303 0.0 0.0 0.00 0.01 0.01 93 1015.2
20260505231525 71 303 0.0 0.0 0.00 0.01 0.01 93 1015.2
20260505231005 71 303 0.0 0.0 0.00 0.01 0.01 93 1015.2
20260505230504 71 303 0.0 0.0 0.00 0.01 0.01 94 1015.1
20260505230005 71 303 0.0 0.0 0.00 0.01 0.01 93 1015.2
20260505225501 71 303 0.0 0.0 0.00 0.01 0.01 93 1015.1
20260505224950 71 303 0.0 0.0 0.00 0.01 0.01 93 1015.3
20260505224422 71 303 0.0 0.0 0.00 0.01 0.01 93 1015.3
20260505223857 71 303 0.0 0.0 0.00 0.01 0.01 93 1015.3
20260505223355 72 303 0.0 0.0 0.00 0.01 0.01 92 1015.3
20260505222825 72 303 0.0 0.0 0.00 0.01 0.01 91 1015.1
20260505222324 72 303 0.0 0.0 0.00 0.01 0.01 91 1015.3
20260505222043 72 303 0.0 0.0 0.00 0.01 0.01 91 1015.3
20260505221544 72 303 0.0 0.0 0.00 0.02 0.01 91 1015.3
20260505220808 73 303 0.0 0.0 0.00 0.02 0.01 91 1015.3
20260505220305 73 303 0.0 0.0 0.00 0.02 0.01 91 1015.2
20260505220029 73 303 0.0 0.0 0.00 0.02 0.01 91 1015.3
20260505215256 73 303 0.0 0.0 0.00 0.02 0.01 90 1015.3
20260505214730 74 303 0.0 0.0 0.00 0.02 0.01 89 1015.2
20260505214201 74 303 0.0 0.0 0.00 0.02 0.01 90 1015.1
20260505213903 74 303 0.0 0.0 0.00 0.02 0.01 89 1015.1
20260505213336 75 303 0.0 0.0 0.00 0.02 0.01 88 1015.1
20260505212559 75 303 0.0 0.0 0.00 0.02 0.01 88 1015.0
20260505212052 76 303 0.0 0.0 0.00 0.02 0.01 87 1015.0
20260505211528 76 303 0.0 0.0 0.00 0.02 0.01 85 1014.9
20260505211022 77 303 0.0 0.0 0.00 0.02 0.01 85 1014.9
20260505210501 77 303 0.0 0.0 0.00 0.02 0.01 84 1014.9
20260505210002 78 303 0.0 0.0 0.00 0.02 0.01 83 1014.9
20260505205503 78 303 0.0 0.0 0.00 0.02 0.01 82 1014.8
20260505205009 79 303 0.9 1.7 0.00 0.02 0.01 81 1014.7
20260505205001 79 303 0.0 0.9 0.00 0.02 0.01 82 1014.8
20260505203930 80 303 0.9 2.6 0.00 0.02 0.01 80 1014.6
20260505203400 81 303 0.9 2.6 0.00 0.02 0.01 78 1014.7
20260505202834 82 288 0.0 1.7 0.00 0.02 0.01 77 1014.7
20260505202318 83 288 0.0 1.7 0.00 0.02 0.01 75 1014.6
20260505201818 84 288 0.9 2.6 0.00 0.02 0.01 73 1014.7
20260505201319 85 288 0.9 2.6 0.00 0.02 0.01 72 1014.7
20260505200804 87 271 0.9 1.7 0.00 0.02 0.01 70 1014.7
20260505200304 89 17 0.0 0.9 0.00 0.02 0.01 66 1014.8
20260505195806 90 17 0.0 0.0 0.00 0.02 0.01 65 1014.7
20260505195740 90 17 0.0 0.0 0.00 0.02 0.01 63 1014.7
20260505194711 91 17 0.0 0.0 0.00 0.02 0.01 63 1014.7
20260505194202 91 17 0.0 1.7 0.00 0.02 0.01 60 1014.6
20260505193658 90 17 0.0 1.7 0.00 0.02 0.01 62 1014.6
20260505193154 91 332 0.0 3.5 0.00 0.02 0.01 63 1014.6
20260505192650 90 86 0.0 3.5 0.00 0.02 0.01 60 1014.6
20260505192128 90 56 0.0 0.0 0.00 0.02 0.01 62 1014.6
20260505191628 90 56 0.0 0.0 0.00 0.02 0.01 63 1014.7
20260505191125 90 26 0.0 0.9 0.00 0.02 0.01 60 1014.6
20260505190826 91 337 0.0 0.9 0.00 0.02 0.01 63 1014.7
20260505190054 90 337 0.0 2.6 0.00 0.02 0.01 62 1014.6